Theta_e
317 317 318 320 320 322 323 323 325 323 322 318 315 319 317 316 319 318 318 319 318 318 318 317 320 320 320 322 322 322 322 323 324 324 321 321 322 318 319 320 324 327 327 333 335 337 339 339 339 339 340 340 340 338 336 334 332 330 328 328 327 327 323 325 329 328 329 331 332 333 334 334 333 332 332 330 328 323 319 318 318 317 316 315 314 312 311 310 309 309 309 309 309 309 309 309 310
318 319 320 320 322 324 323 323 329 325 323 317 313 317 315 318 320 317 319 319 318 318 318 318 320 321 320 322 321 323 325 325 323 321 320 321 321 318 319 321 324 325 327 334 335 337 339 339 340 340 339 340 340 338 337 334 331 329 328 328 327 325 321 320 323 325 327 329 331 332 333 333 332 331 331 329 326 323 322 321 319 316 315 314 312 312 312 310 308 308 309 309 309 309 309 309 309
318 320 320 322 323 323 324 324 327 325 322 317 313 316 316 319 320 317 318 317 318 317 318 318 319 320 320 322 322 325 326 324 322 321 321 320 320 318 320 324 327 326 327 333 335 337 339 339 339 340 339 339 340 339 337 333 330 329 328 328 326 323 319 318 321 324 326 328 330 331 331 332 331 330 329 328 326 324 324 324 323 320 318 316 314 313 313 311 308 308 308 308 308 308 308 308 309
318 320 320 322 325 324 330 329 330 328 319 317 316 316 317 319 320 316 316 316 317 318 318 318 318 318 319 321 320 322 323 324 323 321 321 320 319 318 321 324 328 329 328 333 335 336 339 339 339 339 339 339 340 340 337 333 332 331 329 328 326 323 319 318 321 323 325 327 329 330 331 331 331 329 327 326 326 326 325 325 325 323 321 318 316 314 314 312 309 307 307 307 306 306 307 307 308
319 320 320 322 325 324 330 328 332 332 319 321 318 314 317 318 319 314 314 316 316 317 317 317 317 317 319 319 318 319 321 322 323 321 319 319 318 319 321 323 327 329 329 333 335 336 338 339 338 339 338 339 340 339 337 335 334 333 331 329 327 322 318 319 320 322 323 326 328 330 331 331 331 328 325 326 325 325 325 325 325 323 321 319 317 316 315 314 311 308 306 306 305 305 305 306 306
319 320 321 321 324 322 327 324 324 326 319 322 318 315 318 315 317 315 314 316 315 317 317 317 316 317 320 319 318 319 321 320 320 319 318 318 319 320 320 323 327 328 329 332 334 336 337 338 338 339 338 338 339 339 338 336 334 333 331 329 328 322 318 319 319 321 323 326 329 331 331 331 331 328 325 326 325 325 325 325 324 323 321 319 318 317 316 314 313 310 307 305 304 304 304 304 304
320 320 320 323 324 319 326 324 319 322 317 317 318 317 315 313 315 315 315 316 316 316 316 317 316 318 321 320 319 318 320 320 319 319 319 319 319 319 319 323 328 329 331 332 334 337 337 337 336 338 339 338 338 338 337 336 334 333 331 329 329 323 318 319 319 320 323 328 331 331 331 331 331 329 327 326 326 326 325 325 324 322 321 319 318 317 316 315 313 312 309 306 304 303 303 303 304
320 320 320 328 331 326 328 323 320 323 317 313 315 315 313 314 315 315 315 315 316 315 315 317 316 320 321 320 320 317 318 320 319 319 321 321 320 321 320 323 329 331 333 334 334 335 336 336 336 337 338 339 338 338 336 336 335 333 331 330 329 323 318 318 319 320 324 329 331 331 331 331 332 330 328 327 326 326 325 324 323 323 322 321 319 316 316 315 314 313 311 307 305 304 303 304 304
319 321 319 326 332 330 327 321 319 319 317 315 314 315 315 315 315 315 314 314 316 315 315 317 315 321 321 319 318 315 316 318 320 321 322 322 322 323 321 324 330 331 334 337 337 335 333 334 335 336 338 339 338 338 336 336 335 334 332 330 329 324 318 318 319 320 324 330 331 330 330 331 332 331 330 329 328 327 325 325 325 325 325 323 320 317 315 315 314 313 312 309 307 304 303 303 304
319 320 317 326 331 325 321 320 320 318 316 316 314 315 316 315 316 315 315 315 316 315 315 316 316 319 319 316 315 314 314 316 319 322 324 325 324 324 324 327 332 333 334 337 339 336 333 331 334 336 337 338 338 337 337 336 335 335 333 331 329 326 321 319 319 320 324 329 329 328 330 331 331 331 331 331 330 328 327 327 327 328 328 325 322 318 315 314 314 313 312 310 308 306 304 303 303
319 317 317 329 331 324 322 321 319 318 316 316 315 316 316 316 316 314 315 315 315 315 315 315 317 316 315 313 313 313 312 313 316 320 326 329 327 325 325 328 332 335 335 338 339 337 334 331 332 335 336 337 337 337 336 336 336 336 335 332 330 327 324 321 320 320 323 327 327 328 329 330 330 330 331 331 331 330 329 328 329 329 328 326 323 320 315 314 313 313 312 310 309 308 305 304 303
317 320 332 333 327 326 325 321 319 318 317 318 317 316 316 316 316 315 315 315 315 315 315 315 316 315 314 312 312 312 312 312 313 315 322 328 329 326 325 327 329 332 336 338 339 338 334 330 330 333 336 335 335 336 336 336 336 336 335 334 332 329 327 324 322 321 323 325 326 327 328 329 329 329 329 329 329 329 329 328 329 329 328 327 324 320 316 314 313 312 312 310 310 309 307 304 303
316 322 343 330 321 328 323 320 320 319 318 317 316 315 316 315 316 315 315 315 315 315 315 315 316 316 315 313 312 312 312 312 313 313 315 322 328 327 325 325 326 330 333 333 333 332 329 327 326 330 334 334 335 335 335 335 335 335 335 335 334 331 329 327 324 323 324 325 326 325 325 327 328 327 327 327 327 328 329 328 329 328 327 327 324 320 318 316 314 312 312 311 311 310 308 306 304
315 319 338 326 318 325 321 319 320 320 319 317 316 315 317 315 315 316 315 316 315 315 315 315 316 316 315 313 313 313 313 313 313 313 312 316 322 324 323 322 322 324 327 328 327 324 322 322 322 330 335 332 333 334 334 334 334 335 335 335 334 333 331 328 326 324 324 324 325 324 324 324 325 325 325 324 326 328 328 327 327 327 326 326 323 320 319 318 316 313 312 312 312 311 309 307 305
316 317 331 326 318 322 320 320 321 323 320 316 317 315 316 315 315 316 315 317 315 314 315 315 315 315 316 315 315 313 313 313 313 314 313 314 316 319 321 321 319 318 321 323 323 321 320 320 322 332 336 331 332 333 333 333 333 334 334 335 335 334 333 330 328 326 324 324 324 324 324 323 323 324 323 323 325 327 326 326 327 326 325 324 321 321 321 320 318 314 313 313 312 312 311 309 307
318 319 331 328 319 319 317 317 321 323 318 314 316 315 316 315 315 316 315 315 315 315 315 315 315 315 315 314 315 313 313 315 315 316 315 314 314 316 318 319 319 317 317 318 318 319 319 320 323 328 330 331 333 333 332 332 332 333 333 335 336 335 334 332 329 327 326 325 324 324 323 322 322 322 323 323 324 325 327 328 327 325 324 323 321 322 321 321 320 316 314 314 313 313 312 311 310
319 325 337 329 318 318 316 317 320 322 319 314 314 315 316 315 315 315 314 314 315 315 314 315 314 314 315 314 314 313 314 317 318 319 317 316 316 315 316 317 317 317 317 317 317 317 317 319 321 322 325 330 334 333 333 332 331 332 333 334 335 334 334 334 332 330 329 326 325 324 323 322 323 323 323 323 323 325 327 328 326 325 324 323 322 322 322 321 321 319 318 316 315 315 314 313 313
320 333 336 322 316 316 315 319 318 318 318 314 314 315 316 316 316 315 314 315 314 314 314 314 314 314 314 313 313 312 313 316 319 320 319 319 318 317 316 316 316 316 317 317 317 318 318 318 319 320 322 327 331 331 331 332 331 331 332 333 334 333 334 334 333 333 331 328 326 325 324 323 323 323 323 324 324 325 327 327 326 325 324 324 323 323 322 322 322 321 321 320 319 318 317 316 315
320 332 330 319 320 316 313 316 314 314 316 314 314 315 315 316 315 315 314 313 313 315 314 313 314 313 313 313 312 312 312 315 318 320 319 318 318 317 317 316 316 316 316 316 316 317 318 318 318 319 321 323 327 329 328 329 330 329 330 331 332 332 333 332 332 333 333 330 328 326 325 324 324 324 324 325 326 326 326 326 326 326 325 324 324 323 323 323 323 322 323 322 322 320 319 318 317
316 326 325 318 318 315 313 314 314 315 315 314 314 314 315 316 315 315 314 312 313 315 314 313 314 313 313 312 312 312 312 314 316 318 319 318 317 317 316 315 314 314 314 314 315 316 316 317 318 319 320 322 325 329 328 327 328 327 327 329 330 330 331 330 331 332 333 332 330 328 327 326 325 325 325 326 327 327 327 327 326 326 325 324 324 324 324 325 324 324 324 323 323 322 320 319 318
315 321 321 314 313 315 315 315 315 316 315 315 315 314 315 314 315 315 314 314 315 314 314 315 314 314 313 312 312 312 312 313 315 316 317 316 316 315 314 314 313 313 313 313 313 313 314 315 317 319 320 322 326 329 330 330 329 327 326 328 330 331 331 331 332 332 333 333 331 330 329 328 327 328 328 329 329 328 328 328 327 326 326 326 325 325 325 325 325 325 325 324 324 323 321 320 319
315 315 315 313 312 315 315 314 315 314 315 315 314 314 315 314 314 315 314 317 318 315 314 315 314 315 314 313 312 312 312 312 313 313 314 314 314 314 313 313 313 313 313 313 313 313 313 313 314 317 319 323 327 330 329 330 330 328 329 330 331 332 332 333 333 333 333 334 333 332 331 330 330 331 331 331 330 329 329 328 328 328 327 326 325 326 326 325 325 326 325 325 325 324 323 322 320
318 315 313 314 314 316 316 315 315 314 315 314 314 315 315 315 315 315 314 315 317 315 314 315 315 315 314 313 312 312 312 312 313 313 313 313 313 314 314 314 314 314 314 314 314 314 314 313 312 315 319 323 328 330 330 330 329 330 331 331 331 332 331 332 333 333 333 333 334 333 332 332 332 332 332 332 332 331 330 329 329 328 328 327 326 327 327 325 325 326 325 325 326 325 324 323 321
320 318 314 315 316 316 316 315 316 315 315 315 315 315 314 315 315 315 314 314 315 314 314 314 314 314 313 313 312 312 312 313 313 314 314 314 314 314 314 315 314 314 314 314 314 314 314 314 313 313 317 324 328 329 329 330 329 330 331 330 330 330 331 333 333 334 334 333 333 333 333 332 333 333 332 332 332 331 331 330 329 329 328 327 327 327 327 326 326 326 326 325 326 326 325 324 322
318 318 315 315 316 316 316 316 316 316 315 315 315 314 315 315 314 314 314 315 314 313 313 313 313 313 313 313 312 312 312 313 313 314 314 314 314 314 315 314 314 314 314 314 314 314 314 314 314 312 316 324 329 329 329 330 329 330 330 330 334 333 331 333 333 333 333 333 334 333 333 333 332 332 331 331 331 331 331 331 331 330 329 328 328 328 327 327 327 327 327 326 327 326 324 324 322
316 316 315 315 315 315 315 316 316 316 315 315 315 315 315 314 314 314 314 314 314 313 312 312 312 312 312 312 312 312 312 313 314 314 314 314 314 314 314 314 314 314 314 314 313 314 314 313 313 313 317 325 329 329 328 328 329 331 330 330 336 335 331 331 332 333 331 331 333 332 333 332 332 331 331 331 331 330 331 330 330 329 329 329 329 328 328 328 328 327 327 327 327 325 324 324 322
315 315 315 315 316 315 315 315 315 315 315 315 316 315 315 314 315 315 314 313 313 312 311 311 312 311 311 311 311 312 312 313 314 314 314 314 314 314 314 314 313 313 313 313 313 313 313 313 313 313 319 326 329 329 328 328 329 330 329 328 332 331 331 333 332 332 331 330 331 332 332 331 331 331 330 330 330 330 330 330 329 329 329 329 329 329 328 328 327 327 326 327 326 324 324 324 322
315 315 316 316 314 315 315 314 314 315 315 315 315 314 313 312 314 316 314 313 313 312 312 311 311 311 311 311 312 312 313 313 313 314 314 314 314 314 313 313 313 313 313 313 313 314 313 314 314 316 322 327 329 330 330 330 329 328 329 328 329 330 330 331 331 332 332 331 332 332 331 330 330 329 329 329 330 330 331 330 329 329 329 328 328 328 327 327 327 326 326 326 325 324 324 323 322
315 315 318 320 319 319 316 313 314 314 315 315 314 315 317 316 314 315 314 313 312 311 312 311 311 311 311 312 312 312 312 313 313 313 314 314 314 313 313 313 313 313 313 313 314 314 314 315 317 320 325 328 329 331 331 331 330 329 330 329 329 329 327 328 330 330 331 332 331 330 329 328 328 327 326 327 328 328 329 329 329 329 328 327 327 327 327 327 326 326 326 325 325 324 324 323 322
317 314 315 321 324 324 316 312 314 314 315 315 314 318 326 323 314 313 314 312 312 311 311 311 311 311 311 311 312 312 312 312 313 313 313 313 313 313 313 312 313 312 312 313 314 314 315 318 321 322 325 328 329 331 331 330 331 329 329 329 330 330 330 330 328 327 329 330 330 329 328 328 327 327 325 325 326 326 327 328 328 327 326 326 326 326 326 326 326 325 325 325 324 324 323 321 319
318 313 319 324 320 328 322 312 314 315 314 314 315 319 325 325 314 311 313 312 312 311 311 311 311 311 311 312 311 311 312 312 312 312 312 312 312 312 312 312 312 312 313 313 314 315 316 320 322 323 324 326 327 330 331 329 329 329 328 328 330 331 331 329 328 327 327 328 328 328 327 327 326 326 325 324 324 325 326 326 326 326 325 325 325 325 325 325 324 324 324 324 323 322 319 315 311
323 315 327 328 317 331 329 311 313 316 314 312 315 320 322 322 315 312 312 312 312 311 311 311 311 311 311 311 312 311 312 312 312 312 312 312 311 312 311 311 311 311 313 313 314 315 318 321 321 322 324 324 324 327 329 329 328 328 328 328 328 328 329 327 327 327 326 326 327 326 326 325 324 324 324 323 323 324 325 325 325 325 325 324 324 324 323 323 323 323 322 320 318 315 310 307 305
333 320 326 330 320 326 326 313 313 314 314 312 314 320 323 320 312 311 312 311 312 311 311 311 311 311 311 311 311 311 311 311 311 311 311 311 311 311 311 311 311 313 313 313 314 314 317 322 322 324 326 323 324 326 326 328 327 326 326 327 328 327 327 326 326 326 326 326 327 326 325 325 324 323 323 323 324 325 325 324 324 324 323 323 322 323 323 322 322 320 318 314 310 307 304 303 303
333 320 321 328 323 321 323 320 314 311 314 315 313 316 320 318 310 310 312 311 311 311 311 312 311 311 311 311 311 311 311 311 311 311 311 311 311 311 311 310 311 313 314 313 316 315 316 322 323 325 325 322 324 326 326 327 327 325 324 324 326 325 325 325 325 326 326 325 325 325 325 324 323 322 322 323 324 323 323 323 323 322 322 321 321 321 321 319 317 314 310 306 303 302 301 301 302
329 322 322 325 322 320 323 323 317 313 315 316 316 315 317 317 312 310 311 311 311 311 311 311 311 311 311 311 310 310 310 310 311 311 310 310 310 310 310 310 311 314 315 315 319 320 319 319 321 323 323 322 324 325 325 326 326 326 324 324 324 324 324 324 324 323 324 323 323 322 322 321 320 320 320 321 321 321 321 321 320 320 320 319 319 317 314 312 309 305 303 302 300 300 299 299 301
330 331 331 329 325 323 324 324 318 314 315 317 317 316 316 316 314 311 310 311 310 311 311 310 311 311 311 311 310 310 310 310 310 310 310 310 310 310 310 310 311 315 317 317 319 322 321 320 320 322 321 321 324 324 324 324 325 325 324 324 322 322 322 322 321 321 322 321 320 320 319 319 318 318 318 319 319 319 319 318 316 315 313 312 311 309 306 304 302 301 300 299 298 298 298 298 300
324 327 328 327 325 324 324 324 318 312 315 321 319 317 316 316 315 311 310 311 309 309 310 309 311 311 311 311 310 310 310 309 309 309 309 309 310 309 309 312 312 315 319 318 319 320 320 319 321 324 322 321 322 322 322 323 324 323 322 322 321 320 321 320 319 320 320 318 318 318 318 318 317 317 316 315 315 314 313 310 308 306 304 304 303 302 301 300 300 299 298 298 297 297 297 296 297
318 320 321 322 324 324 323 322 317 311 315 323 321 318 317 316 316 312 310 310 309 309 309 309 310 310 311 311 310 310 309 309 309 309 309 309 310 309 310 313 313 315 319 319 320 320 319 318 319 322 323 323 323 321 321 323 323 322 321 320 320 320 320 318 318 319 318 317 317 317 316 315 314 312 309 308 307 306 305 303 302 301 300 300 300 299 299 298 298 298 298 298 297 297 296 295 295
318 318 319 321 324 323 322 321 318 313 315 323 324 319 317 318 317 313 310 310 310 311 311 311 312 311 310 310 310 310 309 309 308 308 309 309 310 310 310 311 311 315 319 319 320 321 320 319 317 320 322 322 323 322 322 323 322 322 321 320 320 319 319 318 318 318 317 315 314 312 310 308 306 305 303 302 302 301 300 300 300 299 298 298 298 298 298 297 297 297 297 297 296 296 296 295 294
318 320 319 321 323 322 323 323 319 316 317 320 321 319 317 317 317 316 312 311 312 312 312 312 311 311 311 311 311 310 309 309 308 308 309 309 310 310 310 311 311 315 319 319 319 319 319 317 317 319 319 319 320 321 321 320 320 320 319 319 318 318 317 317 317 314 311 310 308 305 303 302 301 301 300 299 299 299 299 299 298 298 298 297 297 297 297 297 296 296 296 295 296 296 295 295 294
321 321 320 322 325 323 323 323 320 323 324 320 319 321 324 322 319 319 315 310 311 311 311 311 310 310 311 310 310 310 310 309 309 308 309 309 310 309 310 312 313 314 317 319 319 319 317 316 318 320 318 318 319 320 319 318 318 317 317 317 317 316 315 313 312 309 305 304 303 301 300 299 299 299 298 298 298 298 298 298 297 297 297 297 296 297 296 296 295 295 295 294 295 295 294 294 294
322 323 322 323 327 324 322 323 322 326 330 323 318 324 333 333 327 324 320 315 314 311 308 309 310 309 309 309 309 309 309 309 309 309 309 309 310 309 310 313 314 314 315 317 318 319 319 318 319 320 319 319 319 318 318 318 317 316 316 316 315 315 312 308 306 304 302 301 300 299 299 298 298 298 298 298 297 297 297 297 297 297 297 296 296 296 295 295 295 294 294 294 294 293 293 293 293
321 324 324 323 324 323 322 323 323 327 329 321 318 324 330 328 326 327 326 323 320 313 308 308 309 308 308 309 309 309 308 308 308 308 308 309 309 310 311 312 314 314 314 316 317 317 318 319 319 318 318 318 317 316 316 316 315 315 315 314 314 313 309 304 302 301 300 300 299 298 298 297 297 298 297 297 297 297 297 297 296 296 296 295 295 295 295 294 294 294 293 293 293 292 292 293 292
325 324 324 324 322 323 324 324 323 326 326 322 321 325 325 323 325 325 322 323 324 318 311 307 306 308 308 308 309 309 309 308 308 307 307 309 310 310 311 313 315 315 315 316 317 315 315 316 316 316 317 317 316 315 315 314 313 313 314 313 311 308 305 302 301 300 299 299 298 298 297 297 297 297 297 297 297 297 296 296 295 295 295 294 294 294 294 293 293 293 293 293 292 292 292 292 291
325 321 323 326 325 327 328 327 326 323 322 324 324 322 323 326 327 323 317 320 324 321 316 309 306 307 307 308 308 308 308 308 308 308 307 308 310 310 311 313 315 316 315 314 315 316 315 314 315 316 317 316 314 314 314 313 312 313 312 311 307 303 302 301 300 299 299 298 298 297 297 297 297 297 297 297 296 296 295 295 294 294 294 294 293 294 293 293 293 292 292 292 292 292 291 291 291
319 317 322 325 324 326 328 328 327 325 323 325 325 322 323 326 326 322 318 321 325 322 318 311 306 307 307 307 308 308 308 308 307 307 307 307 310 310 310 312 314 316 314 312 314 316 315 314 315 316 316 315 313 313 313 311 311 311 309 306 304 302 301 300 299 299 298 297 298 298 297 297 297 297 296 295 295 295 294 294 294 294 293 293 293 293 292 292 292 292 292 291 291 291 291 291 291
315 321 327 327 326 326 328 326 324 325 324 324 326 324 322 325 326 325 321 322 324 321 320 315 307 306 307 307 308 308 307 307 307 306 306 307 310 311 311 311 312 313 312 313 315 315 314 314 315 315 314 313 312 311 310 308 308 307 305 303 303 302 301 300 299 299 298 298 298 298 297 297 296 296 295 295 294 294 293 293 293 293 293 293 292 292 292 292 292 291 291 291 291 291 290 290 290
318 329 330 327 328 326 326 325 323 325 326 324 323 320 319 323 328 327 321 320 320 318 321 321 310 305 306 307 307 307 307 307 306 306 305 306 309 311 311 311 312 312 312 314 315 313 313 314 314 314 313 312 311 308 306 306 304 303 302 302 301 301 301 300 300 299 298 298 298 298 297 296 296 295 294 294 294 293 293 293 293 293 293 292 292 292 292 291 291 291 291 291 290 290 290 290 289
322 328 326 324 326 324 325 325 323 324 323 318 316 318 319 320 323 325 322 321 319 314 314 316 310 306 306 306 306 307 306 306 306 306 305 306 309 311 311 311 312 312 313 314 314 312 312 313 313 313 312 310 307 305 304 303 302 301 301 300 300 300 300 299 299 299 299 298 298 298 297 296 295 295 294 294 293 293 293 293 293 292 292 292 292 292 291 291 291 291 290 290 290 290 289 289 288
321 324 325 325 325 325 329 328 323 323 323 315 312 317 321 321 321 322 320 317 313 309 309 311 310 309 309 307 306 306 306 306 306 305 305 305 308 311 311 311 312 312 313 314 313 312 312 312 311 311 311 307 304 303 302 302 301 300 299 299 299 299 299 299 299 299 299 298 297 297 296 296 295 294 294 294 293 293 293 293 293 292 292 292 292 291 291 291 290 290 290 289 289 289 288 288 288
319 321 322 324 326 329 331 329 326 326 324 317 313 318 325 326 323 317 312 309 308 308 309 310 310 310 309 307 305 306 305 305 305 305 305 305 307 311 311 311 312 312 313 313 313 313 312 311 311 311 309 305 303 302 301 300 299 298 298 298 299 299 299 298 298 298 298 297 297 296 296 295 294 294 294 294 293 293 293 293 292 292 292 291 291 291 290 290 290 289 289 289 288 288 288 288 287
318 319 321 323 325 326 324 323 322 321 322 319 316 321 325 323 320 313 308 307 306 307 307 308 308 306 306 306 305 305 305 305 304 304 304 304 307 311 311 311 312 313 312 312 312 312 311 311 311 311 308 304 303 302 300 299 298 297 298 298 298 298 298 298 298 297 297 297 296 296 295 295 294 294 294 294 294 293 293 292 292 292 291 291 291 290 290 289 289 288 288 288 288 288 287 287 287
319 318 321 321 319 320 322 321 316 316 320 321 318 321 322 319 318 316 311 311 310 307 305 305 305 304 304 304 305 305 305 304 304 304 304 304 307 310 311 311 312 313 312 311 311 311 310 311 311 310 307 304 302 301 300 298 297 297 297 297 297 297 297 297 297 297 296 296 295 295 295 295 294 294 294 294 293 293 293 292 292 291 291 290 290 290 289 289 288 288 288 287 287 287 287 287 286
321 321 320 317 316 321 325 323 321 321 323 322 319 320 322 321 321 318 312 314 316 313 307 303 302 303 303 303 304 305 305 305 304 304 304 304 306 309 312 311 311 312 312 311 311 311 311 311 311 308 306 304 302 301 299 298 297 297 297 297 297 297 297 297 296 296 296 296 295 295 295 295 295 294 294 294 293 293 292 292 291 290 290 290 289 289 288 288 288 287 287 287 287 287 287 286 286
317 320 317 318 323 324 322 322 325 325 324 324 322 319 319 319 322 322 317 319 322 315 309 305 303 302 301 302 304 304 304 305 304 303 303 304 305 308 311 312 312 312 312 312 311 312 312 312 310 307 305 303 302 300 299 297 297 297 296 296 296 296 296 296 296 296 296 295 295 295 295 295 295 294 294 293 293 292 292 291 290 290 290 290 289 288 288 287 287 287 287 287 287 287 286 286 286
312 314 314 317 323 322 321 321 323 324 325 326 324 321 321 320 321 324 322 323 323 316 312 309 304 301 302 303 303 303 304 304 304 304 304 304 305 307 310 312 312 312 312 312 312 312 312 310 308 306 305 303 302 300 298 297 296 296 296 296 295 296 296 296 295 296 295 295 295 295 295 295 294 294 294 293 293 292 291 291 290 290 290 289 289 288 287 287 287 287 287 287 287 286 286 286 286
314 317 317 317 317 318 321 320 320 324 326 326 325 322 324 324 321 321 322 322 320 314 313 310 303 302 303 303 304 305 304 304 304 304 304 304 305 306 308 311 311 312 312 312 312 310 309 307 306 305 304 302 301 299 298 297 296 296 296 295 295 295 295 295 295 295 295 295 295 295 295 294 294 294 293 293 292 292 291 290 290 290 289 289 289 288 287 287 287 287 287 287 286 286 286 286 285
316 317 317 317 316 318 321 320 319 320 322 326 326 321 324 327 320 318 320 318 313 309 309 308 304 303 304 304 306 306 305 305 304 304 304 305 305 305 307 309 310 311 311 310 310 308 307 306 304 303 303 302 301 299 298 297 296 296 295 295 295 295 295 295 295 295 295 295 295 295 294 294 294 293 293 292 292 291 291 290 290 290 289 289 289 288 287 287 287 287 287 286 286 286 286 285 285
Wind_Speed
2 2 1 3 3 3 1 2 1 3 4 3 2 2 1 2 2 2 2 2 2 3 6 9 13 14 12 12 15 14 10 2 1 3 4 4 5 5 4 3 6 8 9 16 16 13 12 11 10 10 8 7 6 6 6 6 6 6 6 6 6 8 10 10 11 12 12 12 11 9 8 8 8 7 8 9 11 12 13 13 12 12 11 11 11 12 12 12 11 9 8 7 6 5 5 4 4
1 1 2 4 2 2 1 3 2 3 5 3 2 2 1 3 3 2 2 1 2 2 6 13 20 21 18 17 14 15 13 9 8 9 10 8 6 4 4 6 8 8 10 17 16 14 13 11 10 10 9 8 6 5 5 5 5 5 5 5 6 7 9 10 11 12 11 12 11 10 8 7 7 7 8 9 10 11 12 13 13 12 12 12 12 13 14 14 12 10 9 8 8 7 5 5 5
1 2 2 3 2 3 3 4 3 2 5 3 2 2 1 3 3 5 4 2 3 3 5 11 15 11 12 13 10 8 5 7 12 11 10 9 7 4 6 9 10 8 10 17 16 14 13 12 11 10 10 9 8 6 5 5 5 4 4 4 5 7 8 9 11 11 11 11 11 10 7 6 6 7 8 8 9 10 11 13 13 13 13 13 13 13 14 15 14 12 10 10 9 8 7 6 5
1 2 2 2 2 2 4 4 3 5 4 3 1 4 2 5 6 6 3 5 5 5 6 8 8 8 13 11 6 7 5 4 6 5 7 9 7 5 7 10 11 9 11 17 16 14 13 12 11 10 10 9 8 7 5 5 4 4 3 3 3 5 8 8 10 10 10 10 11 9 7 6 6 7 7 7 8 9 11 12 14 14 14 14 13 14 15 15 15 14 12 11 11 10 9 7 6
1 2 2 1 1 2 3 3 2 5 3 4 2 4 5 6 6 6 4 7 8 8 9 8 5 7 14 9 3 3 3 4 3 3 8 10 9 7 8 10 11 11 11 16 16 14 13 11 11 10 10 9 9 8 7 5 4 4 3 2 2 5 8 8 8 8 9 9 9 8 7 6 6 6 7 7 7 8 10 12 14 14 14 14 14 14 15 15 16 15 13 12 12 11 10 9 8
1 2 3 3 4 3 3 4 3 2 3 5 4 4 6 7 8 7 6 9 11 10 8 8 8 10 12 11 10 6 3 4 4 6 11 12 10 9 8 10 11 11 11 14 16 13 12 12 10 10 10 9 8 8 7 5 4 4 3 3 3 5 8 8 8 7 8 8 8 8 7 6 5 5 6 6 7 9 11 12 13 14 15 15 16 15 15 15 15 16 14 13 12 11 10 9 8
1 2 2 5 5 4 4 4 4 2 2 5 6 6 7 8 11 10 6 6 8 9 9 11 14 13 8 6 9 10 5 4 6 9 11 11 10 9 8 10 11 12 12 13 15 12 11 11 10 10 9 8 8 7 7 5 5 5 4 4 5 6 8 8 8 7 7 8 8 8 7 6 4 4 6 6 7 9 11 12 13 14 15 16 16 16 15 15 15 15 15 13 12 11 11 10 9
2 2 4 4 3 4 4 3 2 3 1 3 4 6 8 10 12 8 4 3 3 5 8 9 11 8 2 3 4 8 9 7 8 10 10 10 9 9 9 9 10 11 12 12 12 10 10 11 10 10 10 9 9 8 7 5 5 4 4 4 5 7 9 8 7 6 6 7 7 7 6 5 4 4 6 7 7 9 10 11 13 15 16 16 16 16 16 15 14 14 14 14 12 11 11 10 10
4 3 4 4 3 4 3 3 1 2 1 1 3 5 7 10 10 6 4 3 4 7 9 6 7 4 4 7 7 7 10 10 11 11 10 9 8 9 9 9 9 9 11 10 9 8 8 10 11 11 10 10 9 8 7 5 4 4 4 4 5 7 9 8 6 5 5 7 6 6 5 5 4 3 4 6 7 8 9 11 13 15 16 17 16 17 16 14 14 14 14 13 12 11 11 11 10
4 4 3 3 3 4 3 1 0 1 1 2 2 4 5 7 8 7 6 5 4 8 11 7 7 9 9 9 7 6 8 10 11 11 10 9 7 8 9 11 9 8 9 10 9 8 8 8 9 11 11 10 10 9 8 6 5 4 4 4 4 7 8 7 6 4 4 5 5 5 4 4 3 2 3 6 7 7 9 11 12 13 15 16 16 17 16 14 13 13 12 12 12 11 11 11 11
3 4 3 4 4 3 2 2 1 1 2 3 1 4 6 7 8 7 6 6 4 8 10 6 8 14 11 6 6 7 6 7 10 11 11 10 8 7 9 12 12 10 9 10 9 9 8 9 9 11 12 11 11 10 9 7 5 5 5 4 4 6 7 7 6 5 4 4 4 4 4 4 2 0 2 5 6 6 8 10 10 12 14 15 16 17 17 15 13 12 11 11 11 11 10 10 10
2 2 3 4 3 3 4 5 4 2 3 3 1 2 5 8 9 5 5 6 4 8 9 4 7 12 7 4 8 7 4 6 9 11 12 12 10 8 9 10 11 11 11 12 11 10 10 11 10 12 13 12 11 10 9 8 6 6 5 4 4 5 6 6 7 6 5 4 4 3 3 3 1 1 2 4 5 6 7 8 9 11 13 14 16 17 17 15 14 12 11 10 11 10 9 9 10
3 1 5 3 2 4 4 5 3 0 2 2 2 1 5 7 8 7 8 7 4 6 8 6 10 10 4 5 9 5 2 5 8 10 11 13 13 11 10 10 10 11 12 13 13 13 12 12 12 13 14 13 11 11 10 9 8 7 6 6 6 6 6 6 7 7 6 5 4 3 3 2 1 1 2 3 4 5 6 7 8 10 11 13 15 17 17 16 14 12 11 10 10 10 9 9 9
3 3 5 3 2 4 5 3 2 3 1 5 2 2 4 6 8 10 11 7 5 5 4 5 10 8 4 7 8 7 5 5 7 9 11 13 15 14 13 12 11 12 12 12 12 12 11 11 12 11 12 13 12 13 12 11 10 8 8 8 8 8 7 7 7 7 7 6 5 5 3 3 2 1 2 2 3 4 4 6 7 8 9 11 14 16 16 16 15 13 12 11 11 11 10 9 8
4 3 5 4 3 2 4 2 3 5 3 4 2 3 6 7 8 9 9 6 3 4 4 5 6 3 6 8 7 9 7 6 8 9 11 13 15 16 16 15 13 13 13 13 12 11 10 10 11 13 15 14 13 15 14 13 11 10 9 9 9 9 7 7 8 7 7 7 7 6 5 4 3 2 1 1 2 3 3 4 5 7 8 10 13 15 15 15 15 14 13 13 12 12 11 10 9
5 3 5 4 2 2 3 2 3 4 4 4 3 5 6 5 5 5 5 5 6 5 3 3 3 3 9 10 9 11 8 8 10 10 12 13 14 15 16 15 14 14 13 13 12 11 11 10 11 15 18 16 14 16 15 14 13 12 11 10 10 8 7 8 7 6 5 6 8 8 7 6 5 4 3 2 0 1 1 2 4 6 7 10 12 12 13 13 14 14 13 13 13 13 13 12 11
4 3 5 3 2 2 3 3 4 4 4 4 4 6 4 2 4 5 4 4 8 5 3 4 4 7 9 10 11 10 9 11 11 11 12 12 13 14 15 15 14 14 13 13 13 12 12 12 12 14 18 19 17 18 17 16 14 14 13 11 11 9 8 7 6 5 5 7 8 9 9 8 7 5 4 3 2 1 0 1 3 5 5 7 9 9 10 11 12 13 14 14 14 15 15 14 13
3 3 5 3 2 2 3 6 6 4 4 5 5 6 6 3 4 5 4 6 10 7 7 7 6 8 8 9 10 8 9 11 12 12 11 11 12 12 13 14 14 14 14 14 13 13 12 12 13 13 15 19 20 19 18 17 17 16 15 13 12 10 9 8 6 6 7 8 9 9 10 10 8 7 6 4 3 2 1 2 4 3 3 5 6 7 8 8 10 12 14 15 15 16 16 15 14
5 3 4 2 5 2 2 6 6 4 7 8 6 5 8 6 5 5 2 4 9 8 7 8 8 9 9 9 9 8 9 11 12 12 11 10 10 10 10 11 12 13 13 13 13 14 14 13 13 13 14 16 17 16 16 17 18 17 16 15 13 12 11 10 9 9 9 9 9 10 10 11 9 8 7 5 4 2 1 2 3 2 2 3 4 5 6 7 9 11 13 15 15 15 14 13 13
3 4 4 3 6 2 2 6 6 7 11 10 8 6 7 9 6 4 5 6 5 6 8 9 10 11 10 10 10 9 10 11 13 13 11 10 8 8 7 7 8 9 11 11 12 13 14 15 14 15 15 15 15 13 13 14 14 14 15 15 14 14 13 12 11 11 11 11 10 11 11 11 9 8 8 6 4 3 1 2 1 1 1 2 3 4 4 5 8 10 11 12 13 13 11 11 11
2 3 3 5 6 3 3 8 9 10 11 9 8 6 6 9 8 6 8 7 3 8 14 11 11 14 12 12 12 11 11 12 13 13 12 11 9 8 8 7 7 7 7 8 9 11 13 14 15 16 16 15 15 14 14 13 12 11 13 13 13 13 12 12 13 12 12 12 11 11 10 10 9 8 9 7 4 3 2 1 0 1 0 0 2 3 2 3 6 9 10 10 10 10 9 9 9
3 2 2 6 7 3 4 8 9 9 8 8 8 6 7 9 7 7 10 7 4 10 15 13 11 12 11 11 12 12 13 13 13 13 13 12 10 9 8 8 8 8 8 7 8 9 11 13 15 17 18 17 16 17 16 15 14 12 12 13 12 12 11 12 14 14 14 13 12 11 10 9 9 8 9 9 4 3 3 2 1 2 1 0 1 2 1 2 5 7 7 8 8 7 6 7 8
3 0 1 5 5 4 8 8 5 6 6 8 7 6 8 7 5 6 9 8 5 7 12 12 10 10 10 10 11 12 13 13 13 12 11 11 10 9 9 8 9 9 9 9 9 10 11 12 14 16 19 19 19 18 16 16 16 14 13 14 13 12 13 13 14 15 16 15 14 13 13 11 9 7 8 8 5 4 5 3 1 1 1 1 1 1 1 3 3 4 5 7 7 5 4 6 7
5 2 1 3 2 5 8 7 5 4 5 6 6 6 7 6 4 5 8 8 7 10 11 12 11 10 11 10 11 12 13 12 12 11 10 9 8 8 8 9 9 10 10 10 11 12 12 13 13 16 19 21 21 21 18 17 17 16 15 14 14 14 14 14 15 16 16 15 13 12 12 11 10 9 9 8 6 7 7 6 4 3 3 3 3 3 2 3 3 2 2 4 5 5 3 5 7
5 2 1 1 1 4 6 6 6 5 4 5 4 5 6 5 3 4 7 9 11 14 13 12 12 12 13 13 13 13 13 12 11 9 8 7 7 8 9 9 10 11 10 11 12 12 13 13 12 15 20 23 23 22 20 19 18 17 16 14 15 16 15 15 14 14 14 13 11 9 9 9 9 10 11 9 9 10 10 9 9 7 5 5 5 7 6 5 6 5 4 2 1 4 2 4 8
1 2 1 1 1 3 5 8 8 6 5 6 4 5 7 5 3 4 8 11 13 14 13 13 13 13 14 14 14 14 13 11 10 9 8 8 8 8 9 10 10 10 9 10 11 11 11 10 10 16 21 24 24 22 21 20 19 18 17 18 17 15 13 13 12 11 11 11 9 8 8 7 6 7 7 6 7 9 8 8 10 8 7 8 8 10 10 9 10 10 9 6 4 3 2 6 9
2 2 2 5 5 5 6 9 10 8 7 7 6 5 5 3 3 4 9 14 15 14 13 13 13 14 14 14 14 13 11 10 9 9 8 8 8 9 9 10 10 9 7 8 9 9 9 8 11 17 22 24 23 20 19 19 19 18 19 20 18 14 13 12 12 11 9 8 7 7 7 5 5 5 5 5 6 7 7 7 9 9 11 12 12 13 14 13 13 12 9 6 4 3 1 6 8
1 1 4 7 7 8 7 9 12 9 5 8 8 4 4 1 3 5 10 17 16 15 15 14 14 14 14 14 13 12 11 10 9 9 9 9 9 9 10 10 10 8 6 7 7 7 8 9 13 19 23 24 22 18 18 18 17 16 16 17 16 15 16 14 12 11 10 9 9 8 6 5 5 5 6 7 7 6 7 7 8 9 11 11 10 12 12 10 10 9 7 5 3 1 2 5 7
1 2 4 7 8 6 6 7 11 10 4 7 7 3 5 3 5 5 10 18 17 16 16 16 16 15 14 13 12 12 11 11 10 9 9 9 10 10 10 11 11 9 6 5 7 7 9 12 15 20 22 24 22 19 19 19 16 16 15 14 14 14 15 15 13 14 12 9 9 9 8 6 6 6 6 7 8 7 7 7 8 8 8 7 5 6 5 4 4 5 5 4 2 1 4 6 7
2 2 2 3 7 5 4 2 9 11 3 6 7 2 6 6 7 5 12 20 19 19 18 18 17 16 15 13 13 13 12 11 11 10 10 10 10 11 10 10 11 10 6 5 7 9 11 14 17 20 21 23 22 18 19 19 16 17 16 14 15 14 15 15 14 13 13 10 9 9 8 6 5 4 4 5 6 8 8 8 8 7 5 3 2 2 1 1 2 3 3 2 2 3 5 6 7
1 2 2 2 2 4 6 2 10 9 2 8 9 1 6 8 7 9 16 20 20 21 21 20 19 18 16 15 14 14 13 12 11 11 11 10 10 11 10 9 9 9 6 5 8 11 13 15 17 18 19 21 20 17 17 19 17 17 17 15 16 14 14 14 13 11 11 10 9 8 6 3 2 2 1 1 1 3 4 4 4 4 2 2 2 1 1 1 0 1 2 2 3 4 5 6 5
2 1 3 3 1 5 8 0 11 8 2 8 7 0 7 8 7 12 19 21 21 22 23 22 21 20 19 17 16 15 14 13 12 12 11 10 10 10 10 8 8 7 6 6 8 12 15 16 14 17 18 18 20 18 16 17 18 18 15 14 16 14 12 12 11 9 8 8 8 7 4 4 5 6 5 2 2 2 5 4 4 4 4 3 2 2 1 1 1 1 2 2 3 5 5 5 5
3 1 3 2 1 3 6 1 7 6 4 5 4 2 4 5 3 14 20 22 23 22 23 24 23 22 21 19 18 17 16 15 13 12 11 10 10 10 9 8 7 6 6 7 9 11 16 17 14 17 17 16 19 19 17 19 19 18 15 13 13 12 12 10 9 8 7 7 7 6 5 6 7 6 4 2 2 4 6 6 5 6 5 3 3 3 2 2 2 2 2 3 5 6 6 7 7
4 1 2 4 2 2 3 4 4 4 4 3 4 3 6 6 3 14 21 23 23 22 24 26 25 24 22 20 19 18 17 15 13 12 11 11 10 10 9 7 6 6 6 8 11 11 15 18 16 16 15 15 19 17 17 20 20 18 15 13 12 10 11 11 10 10 8 7 6 6 7 6 5 4 5 6 6 5 5 5 5 6 5 3 3 2 2 2 2 2 3 6 8 7 8 8 9
3 3 1 3 2 2 3 4 3 5 2 3 4 4 10 11 7 13 21 23 24 26 26 25 26 25 23 22 21 19 17 15 13 11 11 11 10 9 9 8 7 7 8 11 14 13 14 16 16 16 14 16 20 19 18 18 17 17 15 14 13 10 11 13 12 10 9 8 8 7 7 7 7 8 9 8 7 6 5 5 4 4 3 1 1 2 4 5 6 6 7 9 9 8 10 10 10
6 6 4 3 3 3 4 5 5 7 4 4 7 7 10 11 9 11 19 24 26 27 23 22 24 25 25 24 23 21 19 16 13 11 11 11 10 9 9 8 8 10 10 13 16 16 16 15 16 19 18 17 19 18 18 17 15 14 13 13 12 10 11 13 12 11 11 10 10 9 9 8 8 8 8 7 6 6 6 7 8 8 7 6 6 7 9 9 9 8 9 10 10 9 11 12 10
5 4 3 4 4 5 4 4 6 5 4 6 8 8 9 10 9 12 18 21 22 23 21 21 24 27 28 27 25 23 20 17 14 12 12 11 11 10 9 9 10 13 13 15 17 17 17 15 16 20 20 19 19 15 15 18 18 14 13 13 12 13 13 13 13 13 12 11 12 11 10 9 8 8 9 9 8 9 10 12 12 13 12 10 10 10 10 9 8 8 8 9 9 10 12 13 11
2 3 3 4 3 5 6 3 5 1 3 6 5 5 9 10 10 13 15 13 18 25 25 24 27 28 29 29 27 25 21 18 16 14 13 13 12 11 12 12 12 14 16 16 18 18 18 17 16 17 19 20 19 16 16 19 20 16 13 13 14 15 16 14 13 13 12 13 13 11 11 11 11 12 13 13 13 13 14 15 14 13 12 10 9 9 9 8 8 9 8 8 9 10 12 13 11
4 3 2 4 3 4 6 4 4 1 2 5 4 4 8 10 9 13 15 15 20 27 30 32 32 31 31 30 29 27 24 22 18 16 15 15 14 13 14 14 14 16 17 17 18 19 20 17 14 16 17 17 17 17 18 18 19 16 13 15 16 16 17 15 14 15 14 15 15 15 15 16 16 17 17 16 15 15 14 13 13 11 11 10 9 9 9 9 10 10 11 11 11 11 11 12 11
5 4 3 4 3 2 3 5 4 2 1 2 4 5 7 8 9 13 15 16 18 22 27 32 33 32 34 34 33 31 28 25 20 18 17 17 17 16 15 16 16 18 19 19 19 19 17 14 17 21 18 15 16 17 16 15 16 16 15 16 16 15 17 17 16 18 18 18 19 20 20 19 18 18 17 15 14 14 12 11 11 10 10 10 8 8 8 9 11 11 11 12 11 10 11 12 12
5 6 6 5 4 5 6 4 4 4 4 2 3 6 6 6 9 11 6 5 12 16 20 25 28 30 31 32 32 31 28 26 22 20 20 19 19 18 17 18 18 19 19 20 21 20 17 15 20 22 17 17 19 16 15 14 15 16 16 18 18 17 19 19 19 22 22 22 22 22 21 19 17 17 15 14 12 12 11 10 10 9 9 9 8 8 9 10 10 10 11 11 11 12 13 12 12
5 5 8 8 7 7 5 2 4 4 5 3 3 3 6 4 6 9 4 2 8 11 13 19 24 25 27 30 31 30 27 24 21 19 20 21 20 19 19 20 20 20 20 20 19 19 19 20 21 19 17 20 20 17 16 15 15 16 17 19 20 21 23 23 23 24 25 24 23 22 20 18 16 15 14 12 11 10 10 9 9 8 8 8 9 9 9 10 10 11 12 12 12 14 13 12 13
4 5 8 8 7 5 3 1 2 1 4 4 2 1 7 5 4 8 5 4 8 8 9 15 19 22 26 30 31 31 28 24 21 19 20 22 22 22 22 22 22 22 21 22 21 18 18 20 20 18 18 19 17 16 16 15 16 17 17 19 21 22 27 28 26 26 25 23 22 20 19 17 15 13 12 11 10 9 9 9 8 8 8 9 10 9 10 11 11 12 12 12 13 13 12 12 14
4 4 5 7 6 6 4 4 3 3 2 4 3 3 5 7 6 6 3 4 10 10 10 11 15 21 25 29 31 31 29 26 23 22 22 24 24 24 23 23 24 24 22 23 23 20 18 18 18 18 19 18 17 17 17 15 16 18 19 22 24 25 27 29 28 25 23 21 20 19 17 16 14 12 10 9 9 8 8 8 9 9 9 10 10 10 11 12 12 12 12 12 12 12 13 14 14
6 4 6 6 6 5 4 5 2 1 2 4 3 2 3 7 6 4 2 4 10 13 10 9 16 23 25 27 29 29 28 26 24 23 23 25 25 25 25 25 25 26 23 22 22 23 20 19 19 20 20 20 18 18 17 16 16 18 22 25 28 29 27 28 27 23 22 20 18 18 16 14 12 10 9 8 8 8 9 9 9 9 10 10 11 11 12 12 12 12 12 13 14 14 15 15 15
4 6 7 6 6 5 5 4 3 3 2 5 5 4 3 6 4 1 1 3 9 10 7 8 18 25 25 26 28 28 27 25 23 22 23 25 26 26 26 27 26 25 23 22 24 24 21 20 21 22 21 21 19 18 17 17 18 21 25 27 28 28 27 26 25 22 21 19 16 16 13 11 10 9 9 9 9 9 9 9 9 9 10 11 11 11 11 11 12 12 13 14 15 15 16 16 17
9 8 7 7 6 5 4 3 4 2 5 6 9 10 7 5 4 4 4 4 6 6 5 4 13 22 26 27 29 29 29 27 25 23 23 25 26 26 27 28 27 25 23 24 23 22 21 21 23 22 22 21 20 19 19 20 22 24 26 26 24 24 24 23 22 21 20 17 15 13 12 10 10 9 9 9 9 9 9 9 9 10 10 10 10 11 11 11 12 13 13 14 14 15 15 15 15
8 5 5 4 4 4 4 4 4 1 6 5 6 8 7 7 6 4 5 6 5 6 5 4 9 20 28 29 30 30 29 28 26 25 25 26 28 28 28 28 28 26 26 26 23 21 22 22 23 23 22 21 21 21 21 23 26 26 25 24 21 20 20 20 19 18 18 15 12 11 11 10 9 9 9 8 9 9 8 8 9 9 9 9 9 10 10 11 11 12 12 12 12 13 13 13 12
5 5 6 3 2 3 3 3 0 3 6 4 0 3 4 8 7 6 10 10 8 7 8 8 11 20 28 31 31 30 29 29 28 27 27 28 30 31 30 30 29 28 28 27 24 23 24 24 23 22 22 23 23 23 24 26 27 26 24 22 20 19 18 18 16 15 15 13 11 10 9 9 8 9 8 7 7 7 7 7 7 7 8 8 9 9 9 10 10 10 10 10 10 10 10 10 10
5 6 6 4 2 1 3 3 2 4 5 4 1 2 3 5 5 9 14 10 7 8 10 12 13 17 24 31 32 30 30 29 29 29 28 29 31 32 31 30 31 30 29 27 27 26 26 25 24 22 22 25 26 26 27 27 27 25 24 22 20 19 18 17 15 13 13 12 11 9 9 8 8 7 7 6 6 6 5 6 6 6 7 7 8 8 8 8 8 8 8 8 8 8 8 9 10
4 4 6 5 5 4 4 4 3 4 4 4 1 2 4 3 2 7 9 7 7 9 10 11 12 15 20 27 31 31 31 30 30 30 29 29 31 33 32 31 31 31 30 29 29 28 28 27 25 23 25 27 28 28 29 28 27 26 25 22 20 18 18 17 15 13 12 12 11 10 9 9 7 6 5 4 5 4 4 4 5 6 6 6 7 7 7 7 6 6 6 6 7 7 8 9 10
2 3 5 3 5 5 2 3 5 3 2 3 2 4 4 4 4 5 4 7 6 5 6 7 9 13 19 26 31 32 32 32 32 32 30 29 31 33 33 33 32 32 32 32 31 31 30 29 27 25 26 29 30 31 30 29 28 27 25 23 21 20 18 17 16 15 13 12 11 10 9 8 7 5 4 3 3 3 3 4 5 5 5 5 6 5 5 5 5 5 5 5 6 7 8 9 10
2 3 4 4 4 5 2 2 1 3 2 4 3 4 5 3 6 5 3 5 6 3 2 6 10 16 22 27 31 33 34 34 34 33 31 30 32 34 34 34 34 34 34 34 33 33 32 30 29 28 28 30 31 32 32 31 29 28 26 24 22 20 19 17 16 15 15 14 12 11 9 8 7 4 3 2 1 1 2 3 4 4 4 4 5 5 5 5 5 4 5 5 6 7 8 9 10
5 4 6 2 2 2 2 1 3 3 3 5 3 5 5 2 4 4 4 4 8 6 4 6 10 17 22 27 31 33 34 34 33 32 32 31 32 34 35 35 35 35 35 35 34 33 31 30 30 31 31 32 33 33 33 32 30 29 27 25 23 21 19 17 16 15 14 13 13 11 9 7 6 4 3 2 1 1 1 2 2 3 4 4 5 5 5 5 4 4 5 5 6 7 8 9 10
4 4 4 4 2 1 2 2 1 1 3 4 3 4 5 5 5 2 2 8 10 8 5 5 10 18 23 26 29 31 33 33 34 34 33 33 33 34 36 36 36 35 35 35 34 33 32 31 31 32 32 32 33 34 34 33 31 29 27 25 23 22 20 19 17 15 14 13 12 11 9 7 6 5 4 4 3 2 0 1 2 3 4 5 5 5 5 5 4 4 4 5 6 7 8 9 11
3 3 3 3 2 4 3 3 3 3 3 3 4 3 4 6 7 7 9 12 12 9 8 8 14 21 25 28 30 32 34 35 35 35 35 34 33 34 36 37 37 36 36 35 35 34 34 33 33 33 32 32 34 34 34 33 31 30 28 26 24 23 21 19 17 16 15 14 13 11 10 9 8 7 6 5 4 2 0 2 3 4 5 6 6 6 5 5 4 4 4 5 6 7 8 10 12
3 4 4 2 1 2 1 1 2 4 3 3 3 6 6 5 5 9 12 11 10 11 10 11 17 24 27 29 32 33 35 36 35 36 35 35 34 34 35 37 37 37 36 36 36 35 35 35 35 35 34 35 35 35 34 34 32 31 29 27 26 24 22 21 19 18 17 15 14 12 11 11 10 9 7 6 4 2 1 3 4 5 6 7 7 6 6 5 5 5 5 6 7 8 9 11 12
5 6 8 8 6 4 2 3 2 2 3 4 3 7 9 4 4 7 8 6 7 11 13 12 17 25 28 30 32 33 35 36 36 36 35 35 35 35 36 37 37 37 37 37 37 37 37 37 37 36 36 36 37 36 35 34 33 31 30 28 26 25 24 23 21 20 19 17 16 15 14 13 11 10 8 6 4 1 1 3 4 6 7 7 8 7 6 6 6 6 6 7 8 9 10 12 13
Wind_Direction
289 262 236 110 116 169 102 81 102 12 67 83 8 81 1 252 162 73 357 342 63 35 45 61 69 83 98 104 109 91 60 63 165 114 140 176 158 162 149 147 161 145 162 166 165 172 170 170 163 158 160 149 143 131 115 107 98 92 85 85 92 115 129 121 117 115 110 108 104 98 92 87 80 71 62 53 50 47 43 47 50 48 46 44 41 37 33 31 30 32 37 43 47 45 46 52 60
260 206 152 138 113 134 138 61 86 359 51 70 332 115 200 335 53 114 212 162 118 106 61 79 94 92 93 99 94 76 53 54 90 113 128 143 152 151 131 133 140 138 161 166 168 171 169 172 166 164 164 156 153 141 122 108 97 89 80 81 91 118 134 129 120 116 107 104 104 99 96 91 82 70 60 51 48 44 39 40 41 42 42 41 39 36 33 34 36 39 44 47 49 48 51 58 67
188 168 142 147 87 90 111 56 90 77 70 94 291 274 354 60 124 199 210 133 86 103 91 92 98 86 85 85 59 65 73 74 89 106 121 138 147 141 133 131 129 127 156 166 169 171 171 174 171 170 169 164 160 154 137 117 97 80 66 70 92 122 133 128 120 116 105 101 100 98 98 94 83 69 56 49 44 37 33 31 30 31 32 32 33 32 32 33 36 41 47 50 49 48 52 60 71
158 147 113 116 83 78 75 56 119 112 109 143 193 280 260 145 174 214 174 84 73 93 110 93 79 71 86 89 72 79 91 87 83 100 127 140 146 146 133 128 129 122 147 166 168 171 175 177 176 174 174 173 166 160 148 130 107 81 58 63 96 133 138 133 125 117 105 99 97 98 99 100 90 71 58 49 42 33 29 26 24 25 25 26 26 28 29 30 33 38 44 50 50 48 52 61 72
175 127 85 52 60 75 80 72 97 98 159 171 136 261 238 179 187 209 141 83 76 89 107 105 86 85 85 79 81 82 82 90 74 116 139 144 149 148 132 128 131 122 140 164 167 169 177 180 180 180 180 178 172 168 159 148 135 107 86 87 111 149 150 143 134 121 108 101 99 103 106 112 101 73 60 51 42 35 30 26 24 24 24 24 23 23 25 27 31 34 40 46 49 48 49 55 66
179 133 72 65 75 89 90 76 88 83 204 164 138 218 218 187 170 161 122 87 80 78 90 112 123 108 85 68 64 64 99 104 108 141 139 144 150 144 135 133 133 124 131 156 167 170 178 183 184 185 185 183 176 174 167 160 159 131 112 119 129 162 164 154 145 129 113 105 104 110 116 122 112 75 59 51 43 37 35 32 27 26 26 24 23 22 22 25 28 32 36 41 46 47 47 49 58
160 156 72 81 70 55 90 107 134 136 210 165 155 182 207 191 154 140 123 96 81 70 77 111 124 108 89 77 63 60 89 126 142 149 142 143 148 142 140 142 138 129 127 143 161 171 181 187 186 183 185 188 181 179 176 169 162 132 116 126 131 159 173 166 154 141 122 111 112 121 128 134 129 84 58 47 42 43 41 37 30 28 27 25 24 21 21 24 26 30 35 39 42 44 45 46 50
133 117 76 88 49 35 94 108 146 170 136 167 166 163 186 177 151 138 132 112 99 78 82 127 135 97 77 154 93 73 92 118 138 148 144 143 144 148 153 149 144 139 136 138 150 168 184 190 190 183 184 191 187 185 186 176 162 135 122 126 133 154 174 176 165 155 132 120 126 137 141 141 136 91 61 45 43 50 47 38 32 31 28 25 24 22 22 22 24 26 31 37 39 41 42 42 43
97 83 72 83 71 45 65 62 84 174 137 134 148 151 160 160 156 141 122 110 113 85 76 141 162 113 128 121 106 95 97 109 129 145 146 147 147 150 160 155 153 149 147 147 154 168 179 190 193 188 187 192 192 191 191 180 170 152 134 133 139 153 171 182 177 168 140 131 140 148 151 148 149 116 73 51 46 53 50 38 33 32 28 26 25 25 24 24 25 25 28 34 39 40 41 41 41
81 69 92 82 79 70 57 57 81 130 222 225 147 122 109 132 147 130 122 125 114 88 78 101 123 130 134 111 105 106 100 109 127 147 151 155 155 154 164 162 168 168 157 161 172 183 184 188 192 192 192 192 195 196 194 183 175 165 144 138 145 153 166 183 186 182 158 147 153 164 171 162 162 140 81 51 46 52 46 34 30 31 27 26 27 26 26 26 27 28 29 33 38 42 42 42 42
68 44 94 82 76 114 158 170 177 189 262 298 70 78 66 101 114 97 106 118 107 97 94 86 109 127 123 107 123 113 107 121 129 146 155 162 168 164 170 170 177 181 169 171 185 199 199 194 193 192 192 195 198 199 196 186 176 172 159 144 150 156 162 177 183 185 184 173 172 180 188 180 186 167 49 34 39 45 34 25 25 27 27 26 26 25 25 29 31 32 34 36 40 43 46 45 45
73 0 75 89 110 157 176 156 169 220 314 338 99 64 61 95 100 95 115 116 105 87 79 72 144 141 110 121 142 116 110 144 141 145 154 166 179 176 180 182 184 185 178 182 191 200 206 203 197 190 192 197 202 202 202 199 191 188 181 167 168 163 161 173 181 185 191 194 195 204 213 201 217 341 23 28 35 35 24 20 21 21 25 27 25 23 25 30 34 37 40 42 43 44 48 49 49
107 149 82 91 138 137 135 141 177 101 352 272 209 90 73 89 100 129 133 113 93 82 59 69 154 159 111 145 151 141 166 181 159 148 154 163 178 185 188 190 192 193 189 195 197 200 204 203 200 193 194 195 200 206 209 212 204 201 202 196 188 176 169 172 179 186 190 195 205 226 242 238 268 338 5 23 34 33 21 14 13 13 22 27 25 24 26 31 35 41 46 47 46 46 49 52 54
104 138 96 111 84 109 133 124 168 128 236 259 239 123 94 95 114 131 129 106 53 79 69 89 150 163 126 146 160 184 199 192 166 152 158 162 174 182 188 192 194 196 196 198 200 204 203 201 198 189 197 196 198 209 211 213 210 209 214 212 204 190 180 176 181 189 192 194 203 223 237 249 262 288 344 11 36 40 19 5 5 8 20 27 26 26 27 30 35 41 48 50 49 48 49 51 54
90 107 90 105 51 73 149 143 153 141 209 243 194 141 109 105 125 127 119 113 91 116 131 116 140 173 165 167 176 188 183 174 161 154 167 170 176 181 187 192 193 195 197 198 199 204 198 196 187 180 198 199 199 212 212 212 212 212 216 220 214 200 192 186 180 185 196 198 203 216 222 230 242 242 273 351 47 52 11 356 6 9 17 24 27 31 30 32 37 40 47 51 52 50 48 47 47
78 91 76 83 62 97 150 141 133 130 221 225 177 160 119 105 126 109 83 115 143 149 174 146 114 144 168 172 173 176 166 165 164 163 177 178 181 183 186 190 194 197 199 204 206 206 198 190 184 185 196 195 202 216 212 212 213 212 216 218 215 209 205 197 183 180 201 209 209 213 219 225 230 239 254 275 344 70 22 352 12 13 14 21 32 36 35 39 44 45 48 52 55 55 52 48 46
72 83 63 70 103 134 165 163 164 162 216 223 184 176 145 109 119 97 64 126 139 127 123 124 122 142 159 166 167 172 163 168 174 175 183 183 185 187 188 190 193 198 201 209 212 212 207 195 191 191 194 194 204 215 210 211 213 210 214 213 214 217 206 204 201 194 215 222 216 214 219 225 228 238 249 264 279 291 271 348 13 17 16 26 40 43 42 49 57 58 58 60 61 60 57 54 51
65 102 79 102 148 147 182 180 188 161 163 188 173 175 160 144 146 122 83 109 123 114 108 119 141 150 156 158 157 168 165 173 185 186 191 190 190 191 193 194 194 200 204 209 215 218 218 211 205 200 197 199 207 215 212 211 215 213 213 212 214 218 209 214 224 219 225 224 218 216 219 226 228 232 238 250 266 270 284 344 2 14 24 42 49 45 48 56 66 70 70 69 68 67 64 61 59
64 100 87 164 198 191 191 172 182 158 149 161 140 147 156 155 171 152 129 134 130 117 113 131 150 153 156 156 152 161 168 180 190 194 201 198 195 195 196 199 199 203 206 210 215 221 224 224 220 214 207 203 205 212 212 210 216 218 215 216 217 220 222 224 227 226 224 220 218 217 220 225 228 233 236 233 236 245 271 319 350 9 22 60 60 45 51 62 68 70 70 69 68 68 67 66 66
51 84 86 224 204 146 108 130 140 156 151 147 132 135 151 159 182 183 159 162 166 163 158 161 171 173 168 161 157 159 171 184 189 196 206 206 208 210 215 220 217 212 213 216 216 220 226 227 226 221 214 207 202 198 202 204 211 217 214 215 219 223 228 227 229 230 223 220 220 216 217 223 225 230 232 221 213 222 242 287 341 26 11 59 72 52 52 62 64 60 61 61 60 60 59 60 63
34 86 135 197 176 125 130 125 117 140 146 146 144 137 156 168 184 198 162 147 232 218 196 198 198 191 180 169 167 164 174 184 188 196 206 212 219 226 234 238 241 237 231 229 223 222 223 225 224 222 218 209 199 193 194 193 194 208 208 208 216 220 225 226 223 223 221 220 216 213 214 217 220 227 224 206 195 217 226 244 140 93 24 56 101 79 61 62 59 52 52 51 51 55 51 48 49
59 51 153 164 162 154 164 145 129 146 152 154 156 151 167 175 186 198 181 174 243 229 211 210 205 196 184 177 177 174 178 183 187 195 203 213 221 228 234 237 244 248 248 244 235 232 226 222 219 219 217 206 199 199 195 191 191 198 202 203 211 211 213 222 221 220 225 224 214 213 216 213 217 227 216 201 207 235 212 188 146 130 124 216 126 95 30 14 49 46 43 37 38 49 45 37 32
96 2 93 135 162 169 166 167 161 171 173 169 172 176 173 177 207 214 207 217 232 219 206 197 191 190 188 186 187 186 188 190 192 196 203 212 221 230 238 247 254 256 258 257 251 247 240 231 218 213 212 203 201 203 195 193 192 192 197 195 199 204 205 216 224 223 224 224 217 212 212 211 213 217 207 206 235 229 192 185 216 163 180 213 201 142 313 327 20 37 35 30 21 18 28 26 23
100 149 157 112 154 169 172 184 193 200 197 183 169 172 186 191 217 229 222 224 202 185 186 188 192 197 202 203 199 198 199 201 203 204 209 217 228 239 249 256 261 264 264 265 262 257 251 242 223 209 205 199 202 205 196 194 192 190 193 191 198 207 205 210 221 224 224 225 225 215 207 210 216 212 198 197 214 208 198 216 224 199 215 227 235 238 244 274 287 330 355 23 7 342 6 19 15
74 139 208 90 149 177 184 204 214 223 207 190 187 202 221 222 220 233 217 199 181 180 185 192 201 207 213 215 209 206 205 207 210 214 220 229 240 249 258 262 264 267 267 265 263 260 255 246 226 204 198 196 199 202 197 192 190 190 191 189 194 198 202 211 216 221 222 221 224 222 217 223 227 213 198 196 209 209 208 222 217 200 222 226 226 243 234 231 240 236 231 201 325 299 332 17 7
105 147 229 298 246 208 210 222 225 230 223 207 220 243 246 239 234 253 222 193 181 186 192 198 206 210 212 213 210 207 208 211 215 223 230 238 249 255 260 265 267 269 270 264 260 258 251 241 218 196 193 194 196 198 197 193 190 192 192 191 196 200 204 209 205 209 218 219 221 221 220 224 225 212 200 201 219 223 222 234 232 222 239 239 236 240 226 218 224 217 210 200 198 242 323 12 3
171 151 280 281 275 271 239 229 232 229 230 223 215 241 262 237 210 246 212 189 186 189 191 197 205 207 205 204 204 205 209 216 222 228 237 245 253 262 267 271 275 274 266 259 256 249 240 227 201 188 188 191 190 192 193 194 196 197 197 196 200 200 191 189 193 204 216 210 204 210 215 215 222 228 228 225 238 258 255 248 252 252 247 237 233 228 214 208 210 203 201 207 205 201 4 1 348
206 327 305 298 308 293 248 227 228 217 226 230 216 242 290 169 196 244 204 187 191 193 192 196 201 203 200 198 201 206 212 220 228 232 241 252 259 269 277 279 281 280 267 257 247 232 218 200 187 182 185 186 184 185 189 193 199 197 196 198 199 198 198 201 195 185 183 176 181 205 219 216 224 236 237 230 235 254 248 246 261 257 237 221 216 211 201 197 200 200 207 224 223 190 350 334 329
302 12 324 309 347 327 253 231 216 197 206 222 199 287 301 214 217 242 196 186 188 193 195 196 200 203 203 204 206 209 216 222 229 237 245 255 265 271 277 281 282 280 271 252 232 214 195 185 182 179 182 184 183 186 188 188 192 189 189 194 200 207 207 206 199 187 190 191 192 206 214 216 226 234 235 229 227 225 224 238 247 235 220 208 205 206 202 203 213 218 227 234 246 316 321 318 326
299 17 33 323 357 342 285 277 194 181 189 191 163 289 284 253 241 203 183 185 184 190 198 198 202 206 207 209 213 214 218 223 227 235 245 253 261 267 270 274 276 276 271 244 215 198 184 177 178 178 181 184 183 187 188 188 192 192 193 192 191 196 191 192 203 207 212 212 204 207 208 212 220 219 214 214 217 217 218 224 230 232 227 204 192 210 234 247 222 219 224 244 284 304 310 320 330
319 351 25 16 12 284 304 17 162 162 203 179 145 220 262 272 264 193 184 190 189 193 197 200 204 206 209 211 215 219 220 222 228 234 243 249 255 263 265 264 263 263 257 232 203 188 175 171 176 181 183 184 185 188 190 192 197 196 197 197 193 192 192 203 218 221 218 210 205 208 203 207 239 257 254 215 218 209 209 211 218 224 188 152 141 115 83 49 59 234 248 269 296 313 330 345 358
28 12 314 344 136 267 310 275 164 159 191 178 142 231 262 282 264 192 185 193 197 200 200 201 205 207 210 212 214 219 221 223 227 231 238 244 249 257 259 256 252 246 233 207 191 180 169 167 175 180 181 186 189 190 193 190 189 192 194 193 196 200 204 211 215 214 215 205 199 202 214 257 264 268 276 305 358 173 178 188 207 194 165 167 176 141 102 59 47 340 299 324 352 6 23 39 50
359 89 250 281 179 276 323 307 191 165 130 186 189 217 255 296 239 185 186 195 200 204 204 203 206 210 211 212 214 217 220 221 223 227 235 239 241 249 254 253 242 220 202 185 176 169 163 163 170 175 179 189 188 188 198 195 189 195 192 180 181 190 195 197 185 175 174 177 180 187 214 241 238 242 242 187 152 171 167 167 172 157 141 136 130 117 100 74 54 4 359 44 50 53 69 78 74
322 4 233 248 212 231 300 305 248 170 130 209 221 224 245 277 222 185 192 199 202 207 211 209 208 210 212 213 215 218 220 220 222 224 231 235 235 242 246 240 223 196 179 168 161 158 158 162 169 174 179 190 187 185 194 195 193 195 193 192 189 183 189 190 180 175 179 184 183 183 196 205 194 176 159 152 160 169 157 144 134 114 98 75 63 78 90 90 88 80 82 84 82 83 86 84 82
196 188 205 258 245 230 250 276 231 166 156 219 197 235 252 265 258 207 202 204 208 215 218 214 211 210 212 214 216 219 220 220 221 223 227 229 229 235 237 225 202 178 165 156 156 160 163 166 176 179 177 184 186 182 182 182 180 179 181 191 192 185 188 187 183 186 184 181 173 165 166 160 150 146 144 149 158 162 159 155 149 134 131 173 222 148 127 118 113 102 92 86 79 80 81 80 84
168 175 158 182 218 254 240 255 239 177 175 231 210 229 247 256 259 232 217 211 214 223 224 221 216 212 213 215 217 219 219 220 218 217 222 224 223 223 225 217 187 168 165 158 159 167 169 171 181 183 180 182 184 180 182 187 183 176 171 174 178 178 177 171 165 162 157 154 147 138 135 134 133 135 139 146 149 149 152 151 146 138 136 143 143 131 118 113 109 98 89 82 74 71 73 75 79
135 135 148 190 206 264 256 261 270 180 169 246 228 232 252 256 257 252 237 220 219 225 226 225 218 213 214 214 215 216 217 218 214 213 216 216 217 211 202 202 185 169 170 169 166 169 172 175 179 180 180 183 188 190 195 200 194 183 175 176 178 171 163 159 153 147 145 140 132 130 131 131 131 132 134 135 134 135 135 132 128 124 123 128 127 116 107 103 99 90 85 82 75 70 71 74 73
159 155 205 245 212 252 258 251 287 201 174 260 255 247 261 260 258 259 243 217 220 222 218 223 220 215 214 212 213 213 212 213 210 211 211 206 208 203 191 193 187 173 172 174 175 177 178 176 177 178 176 176 184 194 199 195 184 178 182 181 174 163 152 153 152 144 143 138 134 138 138 135 135 132 129 128 127 126 126 125 123 121 119 115 107 98 91 84 77 69 59 56 55 55 66 74 73
233 187 183 250 234 264 282 287 309 8 175 263 300 290 266 264 264 261 241 219 227 227 221 224 222 214 211 210 211 209 207 208 208 208 207 200 198 197 192 191 185 176 176 176 176 180 176 172 180 180 173 171 174 176 177 174 167 167 177 174 170 165 153 152 153 146 146 143 139 138 133 131 131 127 124 125 124 122 122 121 116 112 105 94 86 83 76 65 57 50 41 36 35 36 48 57 58
227 190 167 235 243 240 269 290 313 336 227 260 317 306 274 268 266 262 248 231 238 239 232 230 226 219 216 214 213 210 207 207 206 205 203 197 194 194 193 189 182 177 181 181 176 180 182 184 189 179 173 178 174 167 166 167 166 166 171 169 169 169 157 153 154 147 144 143 137 134 130 129 129 126 124 124 122 119 115 109 103 99 94 87 77 70 63 55 49 44 39 34 29 25 31 37 38
237 204 189 208 221 212 227 283 326 333 338 0 354 312 279 257 253 260 269 249 243 241 233 228 225 223 220 215 211 211 213 212 209 206 202 198 195 194 191 187 185 180 183 184 179 184 189 188 185 176 175 182 177 176 183 188 187 183 180 171 169 167 156 154 153 145 142 141 136 133 131 130 129 127 124 122 118 114 108 100 94 87 81 73 60 50 48 48 46 43 41 35 29 29 31 30 29
263 229 203 199 199 214 233 344 13 355 333 338 21 315 283 282 257 261 290 307 253 235 226 222 217 215 212 209 207 208 211 213 214 212 208 202 197 193 189 188 190 186 187 187 182 186 185 176 178 177 176 177 173 175 184 193 196 195 191 178 173 168 155 151 150 145 142 141 137 135 133 131 131 128 125 120 113 106 97 88 79 69 63 57 50 44 44 46 44 42 42 35 34 38 34 27 30
259 242 203 192 178 189 212 112 74 271 265 291 54 151 275 291 251 255 259 253 260 246 231 225 211 204 205 206 206 205 204 204 206 209 208 203 198 193 188 189 191 189 190 189 181 186 187 177 175 176 176 178 179 184 192 201 200 197 195 183 175 167 154 149 148 146 144 143 140 138 136 133 132 127 122 114 104 94 83 76 68 60 55 53 50 43 42 43 39 39 39 33 34 39 30 25 35
239 238 162 156 158 175 182 144 167 230 257 312 15 114 274 282 251 260 256 239 267 261 240 227 210 205 205 205 205 204 204 203 203 204 203 202 200 194 189 191 192 190 191 190 183 185 193 191 185 183 186 190 192 196 203 207 203 195 187 177 168 161 154 148 148 148 146 145 142 139 138 135 130 123 114 105 96 86 76 70 62 55 49 48 45 37 36 38 35 34 33 29 29 28 25 26 32
242 198 122 129 144 147 126 115 149 334 5 298 296 130 260 274 260 290 318 237 260 260 243 217 209 208 204 203 204 203 204 206 208 208 205 202 200 195 193 191 190 188 187 193 194 190 189 192 191 189 191 194 196 201 202 198 194 188 178 170 162 157 154 149 149 150 147 147 144 140 139 134 126 119 109 99 91 81 71 63 57 50 45 43 39 34 35 35 32 30 28 26 24 22 25 25 24
191 133 90 71 75 78 77 94 103 35 330 243 212 169 234 272 249 205 1 240 250 262 260 214 209 208 203 200 201 200 202 203 207 209 206 204 199 196 195 193 191 190 189 197 200 191 186 188 189 191 194 198 200 198 193 184 181 177 171 167 161 157 156 152 152 152 148 150 148 142 138 131 122 115 105 95 85 76 68 62 55 48 45 42 39 36 36 33 30 28 26 25 22 21 22 21 19
130 103 62 49 34 38 46 50 79 49 282 233 196 189 200 268 266 201 203 223 223 245 281 239 208 206 204 201 200 200 200 200 201 202 203 202 198 195 196 196 196 195 193 195 194 186 188 192 191 194 198 199 196 188 181 176 174 173 169 167 164 160 159 156 156 154 151 154 153 143 138 130 122 112 102 93 84 76 68 61 53 46 43 39 35 32 30 27 26 25 24 23 20 20 21 20 19
114 88 78 69 351 10 25 358 46 162 258 249 206 190 188 232 259 240 243 254 229 217 244 243 204 203 204 202 201 201 200 199 198 199 200 198 195 194 195 197 197 195 193 192 190 189 193 195 195 197 197 193 188 180 176 174 172 172 170 169 169 164 160 159 159 156 153 156 154 144 139 131 122 113 103 95 86 77 66 56 47 41 37 32 28 25 23 22 22 21 20 18 17 18 20 20 18
87 97 110 112 310 358 355 306 336 225 251 286 290 145 199 238 251 262 263 264 252 233 236 242 222 208 204 202 201 200 199 198 198 199 199 197 195 194 194 196 196 195 194 191 191 195 195 196 198 199 193 186 180 175 174 175 174 174 173 173 172 166 162 162 162 159 155 155 153 147 141 133 126 117 108 98 86 75 61 49 40 33 27 23 21 19 18 18 16 15 14 14 16 18 20 22 21
143 138 142 154 156 124 274 260 274 265 265 304 1 143 245 267 266 251 252 263 274 267 260 256 246 224 210 203 200 198 197 199 201 201 201 199 197 195 194 196 195 195 195 191 191 195 195 195 198 198 191 182 177 175 176 177 176 176 177 177 175 170 166 166 167 166 161 158 157 152 144 137 129 119 113 101 83 72 54 40 31 23 19 18 17 14 12 12 10 10 12 14 18 23 27 28 26
182 151 137 153 154 170 222 216 218 256 280 300 294 176 200 211 251 249 256 287 301 287 271 254 246 230 210 199 195 195 197 199 202 203 204 202 199 196 195 196 195 195 195 194 194 195 196 197 197 196 191 184 178 177 179 180 180 180 181 180 178 175 174 172 170 169 167 165 163 158 149 141 135 128 120 100 81 69 40 27 20 13 12 11 9 8 6 8 7 8 12 19 28 34 35 31 26
231 113 117 171 179 173 206 199 180 183 289 290 226 224 217 206 260 270 288 301 296 293 269 227 211 201 190 188 190 194 197 199 202 204 204 204 200 197 196 196 196 195 196 197 197 197 198 199 197 195 193 188 182 180 182 185 185 184 184 183 181 179 178 177 174 171 169 167 164 160 155 148 145 138 121 96 76 54 22 15 10 5 7 4 2 2 2 4 6 10 21 32 39 39 33 27 23
162 135 173 200 170 148 163 263 41 91 268 265 199 243 288 306 278 285 345 307 291 307 240 188 180 179 180 185 189 194 197 200 203 205 205 204 200 198 197 197 197 196 197 198 199 199 200 200 198 195 193 192 187 184 185 188 189 188 186 185 184 182 181 182 181 178 173 170 166 164 162 157 152 146 129 109 69 31 6 4 1 358 0 359 358 358 358 2 9 19 33 39 38 35 27 20 15
128 182 200 164 80 90 119 245 345 47 254 270 215 234 262 244 266 318 22 285 266 258 218 179 177 180 183 187 190 194 198 201 204 205 206 205 201 199 198 199 199 199 199 199 200 202 202 203 201 196 193 194 191 188 188 191 192 191 189 187 185 183 183 184 185 184 180 176 173 171 171 169 165 164 165 169 191 229 313 347 356 358 358 358 355 355 354 2 14 26 33 32 28 24 17 11 7
122 177 174 116 117 187 118 165 234 205 247 282 276 251 240 204 217 263 217 230 242 235 206 188 193 192 191 190 191 194 197 200 203 204 205 205 203 201 199 199 200 200 202 202 203 205 205 205 204 200 197 196 194 191 191 193 195 194 193 189 187 186 186 188 188 187 186 184 183 181 180 182 182 183 186 189 196 203 263 353 357 356 357 356 352 353 355 2 12 17 19 18 14 10 5 1 359
58 94 118 90 145 173 164 168 166 166 219 271 299 294 254 222 206 190 202 219 221 210 200 207 209 201 196 192 191 194 198 201 203 204 205 205 203 202 201 201 201 201 203 206 207 207 205 203 202 201 200 199 198 195 193 195 196 196 196 192 190 189 190 191 192 192 192 190 190 191 191 194 193 190 189 189 189 187 330 355 355 353 352 351 348 349 352 354 356 353 356 359 356 356 354 353 352
152 148 164 177 136 115 160 209 141 134 173 222 284 287 265 243 203 191 202 216 213 202 203 213 213 205 199 197 197 198 200 203 205 206 205 204 203 202 202 203 203 203 205 207 208 207 204 203 202 202 201 200 200 198 197 198 198 198 199 196 194 194 194 195 195 196 198 197 197 198 199 198 196 193 191 188 189 188 348 348 348 348 346 346 345 345 343 338 335 332 336 340 340 343 345 345 345
177 188 187 179 166 139 162 243 221 143 183 186 201 270 266 239 199 204 202 209 213 209 211 218 215 208 203 201 202 204 204 206 207 207 206 204 203 202 202 202 203 204 205 206 206 205 204 203 203 203 203 202 202 201 200 201 201 201 201 200 199 199 198 198 199 200 202 202 203 204 202 201 199 196 192 188 190 202 321 331 337 339 340 343 344 341 333 324 321 320 323 328 330 334 337 337 338